TimeMDT,TemperatureF,Dew PointF,Humidity,Sea Level PressureIn,VisibilityMPH,Wind Direction,Wind SpeedMPH,Gust SpeedMPH,PrecipitationIn,Events,Conditions,WindDirDegrees,DateUTC
12:19 AM,62.6,35.6,37,29.90,10.0,North,25.3,29.9,N/A,,Clear,10,2011-10-16 06:19:00
12:53 AM,55.0,39.9,57,29.86,10.0,NNE,16.1,-,N/A,,Clear,30,2011-10-16 06:53:00
1:53 AM,52.0,39.9,63,29.91,10.0,North,17.3,-,N/A,,Clear,360,2011-10-16 07:53:00
2:53 AM,48.2,37.4,66,30.01,10.0,North,12.7,-,N/A,,Clear,360,2011-10-16 08:53:00
3:53 AM,46.0,36.0,68,29.99,10.0,North,10.4,-,N/A,,Clear,350,2011-10-16 09:53:00
4:53 AM,44.1,34.0,68,30.04,10.0,North,10.4,-,N/A,,Clear,360,2011-10-16 10:53:00
5:53 AM,42.1,35.1,76,30.09,10.0,North,9.2,-,N/A,,Clear,360,2011-10-16 11:53:00
6:53 AM,41.0,36.0,82,30.12,10.0,NNW,8.1,-,N/A,,Clear,340,2011-10-16 12:53:00
7:53 AM,41.0,36.0,82,30.17,10.0,NW,5.8,-,N/A,,Clear,310,2011-10-16 13:53:00
8:53 AM,45.0,37.9,76,30.19,10.0,North,10.4,-,N/A,,Clear,350,2011-10-16 14:53:00
9:53 AM,48.0,36.0,63,30.17,10.0,North,12.7,-,N/A,,Clear,10,2011-10-16 15:53:00
10:53 AM,48.9,35.1,59,30.15,10.0,NNE,9.2,-,N/A,,Clear,20,2011-10-16 16:53:00
11:53 AM,52.0,35.1,53,30.16,10.0,Calm,Calm,-,N/A,,Clear,0,2011-10-16 17:53:00
12:53 PM,53.1,34.0,48,30.14,10.0,NNE,4.6,-,N/A,,Clear,30,2011-10-16 18:53:00
1:53 PM,54.0,34.0,47,30.12,10.0,ESE,3.5,-,N/A,,Clear,120,2011-10-16 19:53:00
2:53 PM,55.9,35.1,45,30.09,10.0,North,4.6,-,N/A,,Clear,360,2011-10-16 20:53:00
3:53 PM,57.9,36.0,44,30.08,10.0,ESE,5.8,-,N/A,,Clear,120,2011-10-16 21:53:00
4:53 PM,55.9,36.0,47,30.07,10.0,SE,3.5,-,N/A,,Clear,140,2011-10-16 22:53:00
5:53 PM,53.1,36.0,52,30.07,10.0,SSE,3.5,-,N/A,,Clear,160,2011-10-16 23:53:00
6:53 PM,50.0,36.0,59,30.08,10.0,South,6.9,-,N/A,,Clear,180,2011-10-17 00:53:00
7:53 PM,45.0,35.1,68,30.09,10.0,SSE,6.9,-,N/A,,Clear,160,2011-10-17 01:53:00
8:53 PM,45.0,37.0,74,30.08,10.0,SE,4.6,-,N/A,,Clear,140,2011-10-17 02:53:00
9:53 PM,46.9,36.0,66,30.09,10.0,South,5.8,-,N/A,,Clear,180,2011-10-17 03:53:00
10:53 PM,46.0,37.0,71,30.06,10.0,SSE,3.5,-,N/A,,Clear,160,2011-10-17 04:53:00
11:53 PM,48.0,36.0,63,30.03,10.0,South,8.1,-,N/A,,Partly Cloudy,190,2011-10-17 05:53:00